[[{"header":{"parameterUnit":"m.s-1","parameterCategory":1,"la1":30.2991,"la2":30.254,"lo1":-89.0895,"lo2":-89.0444,"dy":0.0017,"dx":0.0017,"nx":28,"ny":28,"refTime":"2025-04-14T03:00:00:Z","depth":0,"parameterNumber":2,"parameterNumberName":"U-component_of_WINDS"},"data":[0,0,0,0,0,0,0,0,0,0,0,0,0,0,0,0,0,0,0,0,0,0,0,0,0,0,0,0,0,0,0,0,0,0,0,0,0,0,0,0,0,0,0,0,0,0,0,0,0,0,0,0,0,0,0,0,0,0,4.6577,4.6578,0,4.6693,4.6694,4.6695,4.6662,4.6659,4.6657,4.6654,4.6773,4.6779,4.6784,0,0,0,0,0,0,0,0,0,0,0,0,0,4.6325,4.633,4.6577,4.6578,4.658,4.6693,4.6694,4.6696,4.6662,4.6659,4.6656,4.6653,4.6772,4.6778,4.6784,0,0,0,0,0,0,0,0,0,0,0,0,0,4.6437,4.6331,4.6576,4.6576,4.6577,4.6692,4.6694,4.6696,4.6663,4.6659,4.6655,4.6652,4.6769,4.6777,4.6785,4.6907,0,0,4.681,4.6814,0,0,0,0,0,0,0,0,4.6431,4.6446,4.6575,4.6577,4.6578,4.6659,4.6649,4.6767,4.6663,4.663,4.6654,4.665,4.6738,4.6749,4.6778,4.6913,4.6918,4.6811,4.6816,4.6819,4.6821,0,0,0,0,0,0,0,4.6423,4.6441,4.6623,4.6577,4.6579,4.657,4.6582,4.6671,4.6703,4.6633,4.6631,4.6645,4.6738,4.6771,4.6781,4.692,4.6811,4.6818,4.6823,4.6826,4.7159,4.7162,0,0,0,0,0,0,4.6414,4.6435,4.6619,4.6626,4.6494,4.6578,4.6591,4.6637,4.6702,4.6708,4.6648,4.6643,4.6759,4.6771,4.6785,4.6931,4.6819,4.6827,4.6831,4.7155,4.7159,4.7164,0,0,0,0,0,0,4.6409,4.6431,4.6614,4.653,4.6553,4.6586,4.6637,4.6641,4.6673,4.6713,4.6719,4.6675,4.6756,4.6773,4.6877,4.6934,4.683,4.6838,4.715,4.7156,4.7162,4.7224,0,0,0,0,0,0,4.6402,4.6429,4.6476,4.6531,4.6557,4.6705,4.6641,4.6646,4.6687,4.6682,4.674,4.6746,4.6755,4.6865,4.6885,4.6944,4.6844,4.7145,4.7153,4.716,4.7217,4.7231,4.7243,0,0,0,0,0,4.6393,4.6489,4.6479,4.6501,4.6617,4.6708,4.6723,4.673,4.6692,4.6739,4.6765,4.6744,4.6925,4.6876,4.6898,4.696,4.7141,4.715,4.7159,4.7211,4.7228,4.7243,0,0,0,0,0,0,4.644,4.6497,4.6485,4.6602,4.6651,4.6702,4.6761,4.6749,4.6809,4.6801,4.6809,4.6822,4.6927,4.6954,4.6898,4.7081,4.7027,4.7041,4.7059,4.7076,4.7089,4.708,4.6851,0,0,0,0,0,4.6464,4.6534,4.6579,4.6678,4.6703,4.6728,4.6768,4.677,4.682,4.684,4.6874,4.6923,4.6991,4.7035,4.71,4.7221,4.7232,4.7275,4.7288,4.7299,4.731,4.7375,4.7393,4.7193,4.7193,4.7193,0,0,4.6514,4.6554,4.6597,4.6689,4.6726,4.6797,4.6746,4.6824,4.6876,4.6852,4.6951,4.6978,4.7033,4.7145,4.7197,4.7171,4.7368,4.731,4.7318,4.7324,4.7386,4.7405,4.7421,4.7199,4.7198,4.7197,0,0,4.6642,4.6679,4.6765,4.6804,4.6861,4.6877,4.6898,4.6952,4.6968,4.7068,4.705,4.7114,4.7231,4.727,4.7306,4.7448,4.7431,4.7469,4.7539,4.7601,4.7617,4.7631,4.768,4.7698,4.7481,4.7481,4.7481,0,4.6697,4.6804,4.6811,4.689,4.693,4.6912,4.6998,4.7035,4.7111,4.7139,4.711,4.7255,4.7291,4.7412,4.7446,4.7477,4.7499,4.7462,4.7614,4.7629,4.7642,4.7689,4.7707,4.7485,4.7485,4.7484,4.7484,0,4.6868,4.6942,4.7005,4.7078,4.7125,4.7208,4.7227,4.7274,4.7272,4.7291,4.7392,4.7435,4.7507,4.7537,4.7535,4.7657,4.7639,4.7612,4.7558,4.7665,4.7709,4.7727,4.7491,4.749,4.7488,4.7487,0,0,4.7027,4.7103,4.7126,4.7158,4.722,4.7278,4.736,4.743,4.747,4.7523,4.759,4.769,4.7665,4.7705,4.7709,4.7764,4.7872,4.773,4.7731,4.7753,4.8007,4.8025,4.8046,4.7862,4.7865,4.7868,4.8001,0,4.7159,4.7302,4.731,4.744,4.7508,4.7492,4.7563,4.7608,4.7628,4.7689,4.7711,4.7781,4.7744,4.7768,4.7822,4.7847,4.7923,4.7838,4.7924,4.7927,4.7908,4.8069,4.8089,4.8213,4.8019,4.8022,4.8024,0,4.7331,4.7389,4.7525,4.7576,4.7605,4.7669,4.7734,4.7792,4.7843,4.7854,4.7899,4.7895,4.7977,4.7922,4.8036,4.7978,4.8014,4.8032,4.8037,4.8043,4.798,4.8079,4.8253,4.827,4.8052,4.8049,4.8047,0,4.7431,4.7544,4.7639,4.7668,4.7731,4.7775,4.7804,4.7851,4.7893,4.795,4.7977,4.8043,4.8079,4.813,4.8142,4.8101,4.8256,4.8202,4.8266,4.8265,4.8297,4.8295,4.8478,4.8324,4.8324,4.8323,4.8323,0,4.7576,4.766,4.7685,4.7743,4.7836,4.7846,4.7937,4.7963,4.8005,4.8068,4.8058,4.8117,4.8132,4.8194,4.8205,4.8296,4.8313,4.8323,4.8324,4.8323,4.8321,4.8345,4.8336,4.8328,4.8327,4.8326,4.8325,0,4.7703,4.7724,4.7826,4.7878,4.7892,4.7958,4.8002,4.8058,4.8077,4.8157,4.8176,4.8206,4.8278,4.8296,4.8383,4.839,4.8497,4.8492,4.848,4.8479,4.8541,4.8534,4.8744,4.8771,4.8601,4.8603,4.8604,0,4.7793,4.7857,4.7915,4.7956,4.7986,4.8054,4.8096,4.8108,4.8152,4.8214,4.8263,4.8334,4.8391,4.8507,4.8536,4.8602,4.8596,4.8666,4.8606,4.8602,4.8595,4.859,4.8596,4.8676,4.8678,4.8679,4.8681,0,4.795,4.7957,4.8019,4.8084,4.8134,4.8186,4.8236,4.827,4.8289,4.8339,4.8412,4.8457,4.8545,4.8615,4.8681,4.871,4.8698,4.8699,4.8717,4.8715,4.8705,4.8709,4.8508,4.8694,4.8693,4.8692,4.8691,4.869,4.8061,4.8116,4.8165,4.8233,4.8272,4.8318,4.8373,4.8399,4.846,4.8533,4.8536,4.8616,4.8664,4.8752,4.8785,4.8846,4.8825,4.8852,4.8858,4.8864,4.8868,4.8697,4.8859,4.8859,4.8858,4.8858,4.8858,0,4.8215,4.8246,4.8309,4.8378,4.8432,4.8417,4.8471,4.8517,4.8587,4.8634,4.869,4.8774,4.8842,4.8876,4.8944,4.8987,4.8983,4.9004,4.8999,4.9006,4.8885,4.8861,4.9005,4.9005,4.9005,4.9005,4.9005,4.9005,4.8302,4.8394,4.8407,4.8518,4.8549,4.8626,4.8658,4.87,4.8737,4.8832,4.8888,4.891,4.8952,4.9022,4.9083,4.9091,4.9116,4.9139,4.9144,4.903,4.9015,4.9,4.8978,4.9145,4.9145,4.926,4.9261,4.9262]},{"header":{"parameterUnit":"m.s-1","parameterCategory":1,"la1":30.2991,"la2":30.254,"lo1":-89.0895,"lo2":-89.0444,"dy":0.0017,"dx":0.0017,"nx":28,"ny":28,"refTime":"2025-04-14T03:00:00:Z","depth":0,"parameterNumber":3,"parameterNumberName":"V-component_of_WINDS"},"data":[0,0,0,0,0,0,0,0,0,0,0,0,0,0,0,0,0,0,0,0,0,0,0,0,0,0,0,0,0,0,0,0,0,0,0,0,0,0,0,0,0,0,0,0,0,0,0,0,0,0,0,0,0,0,0,0,0,0,3.5262,3.5263,0,3.5381,3.5382,3.5383,3.5393,3.5392,3.5391,3.539,3.551,3.5514,3.5518,0,0,0,0,0,0,0,0,0,0,0,0,0,3.5041,3.5045,3.5262,3.5263,3.5265,3.5381,3.5382,3.5384,3.5394,3.5392,3.539,3.5389,3.5508,3.5513,3.5519,0,0,0,0,0,0,0,0,0,0,0,0,0,3.5146,3.5046,3.5261,3.5283,3.5287,3.538,3.5382,3.5384,3.5394,3.5392,3.539,3.5388,3.5506,3.5513,3.5519,3.5598,0,0,3.5539,3.5542,0,0,0,0,0,0,0,0,3.514,3.5154,3.5279,3.5282,3.5286,3.537,3.5348,3.5456,3.5394,3.5353,3.539,3.5387,3.5465,3.5475,3.5501,3.5604,3.5609,3.554,3.5544,3.5547,3.5549,0,0,0,0,0,0,0,3.5132,3.5149,3.5309,3.528,3.5285,3.5287,3.53,3.5369,3.5418,3.5357,3.5358,3.5372,3.5466,3.5495,3.5504,3.5611,3.554,3.5546,3.555,3.5552,3.5784,3.5786,0,0,0,0,0,0,3.5121,3.5143,3.5305,3.5312,3.5207,3.5292,3.5307,3.5345,3.5417,3.5427,3.5373,3.5372,3.5484,3.5496,3.5508,3.5606,3.5547,3.5553,3.5557,3.5782,3.5785,3.5787,0,0,0,0,0,0,3.5116,3.5136,3.53,3.5228,3.5249,3.5298,3.5341,3.5348,3.5377,3.543,3.5439,3.5393,3.5483,3.5499,3.5576,3.561,3.5556,3.5562,3.5779,3.5783,3.5786,3.5801,0,0,0,0,0,0,3.511,3.5134,3.5165,3.5228,3.5253,3.5367,3.5343,3.5352,3.5388,3.5388,3.5451,3.546,3.5483,3.5566,3.5582,3.5618,3.5567,3.5777,3.5781,3.5785,3.5797,3.5804,3.581,0,0,0,0,0,3.5102,3.5164,3.5166,3.5186,3.5293,3.5368,3.5382,3.5408,3.5391,3.5423,3.5456,3.5458,3.5603,3.5574,3.5592,3.563,3.5775,3.578,3.5785,3.5795,3.5803,3.581,0,0,0,0,0,0,3.5103,3.5173,3.5176,3.5261,3.5309,3.537,3.541,3.5416,3.5469,3.5466,3.5496,3.551,3.5586,3.5616,3.5582,3.571,3.5687,3.5696,3.5688,3.5696,3.5703,3.5694,3.5573,0,0,0,0,0,3.5113,3.5169,3.5227,3.5296,3.532,3.5361,3.5395,3.5411,3.5461,3.5481,3.5521,3.557,3.5626,3.5663,3.5718,3.5801,3.5815,3.5837,3.5843,3.5848,3.5855,3.5901,3.5911,3.5803,3.5803,3.5803,0,0,3.5134,3.5179,3.5213,3.5297,3.5336,3.5393,3.5378,3.5439,3.5481,3.5491,3.5566,3.5597,3.5653,3.5733,3.5771,3.576,3.5888,3.5854,3.5857,3.5862,3.5907,3.5917,3.5926,3.5807,3.5806,3.5806,0,0,3.5202,3.5242,3.5303,3.5343,3.5402,3.5429,3.5444,3.5505,3.5526,3.5602,3.561,3.566,3.5757,3.5797,3.5829,3.5912,3.5915,3.5929,3.5961,3.6006,3.6014,3.6022,3.6051,3.6061,3.5936,3.5936,3.5936,0,3.522,3.5307,3.5334,3.5395,3.5432,3.5443,3.5505,3.5542,3.5616,3.5641,3.5628,3.575,3.5789,3.5879,3.5899,3.5925,3.5942,3.5922,3.6011,3.6019,3.6026,3.6055,3.6065,3.5937,3.5937,3.5937,3.5937,0,3.5327,3.5387,3.543,3.5502,3.5543,3.5604,3.564,3.5678,3.569,3.5718,3.5795,3.5842,3.5906,3.5929,3.5941,3.602,3.6012,3.6005,3.5982,3.6037,3.6064,3.6075,3.5939,3.5938,3.5938,3.5938,0,0,3.5399,3.5485,3.55,3.5533,3.5599,3.5646,3.5707,3.5771,3.5803,3.5853,3.5905,3.5987,3.5981,3.6018,3.6035,3.6074,3.6136,3.6062,3.6063,3.6074,3.6226,3.6231,3.6243,3.6138,3.614,3.6142,3.6221,0,3.5474,3.5585,3.5611,3.5705,3.5761,3.5772,3.5826,3.5872,3.5899,3.595,3.598,3.6037,3.6025,3.6047,3.6086,3.612,3.6166,3.6114,3.6186,3.6188,3.6172,3.6257,3.6263,3.6336,3.6232,3.6234,3.6235,0,3.5577,3.5631,3.5731,3.579,3.5814,3.5862,3.5922,3.597,3.6022,3.604,3.6081,3.6093,3.6157,3.6131,3.6219,3.6183,3.6213,3.6234,3.6237,3.6245,3.6215,3.6267,3.6359,3.637,3.6252,3.625,3.6249,0,3.5619,3.5716,3.5789,3.5816,3.5887,3.592,3.5951,3.6001,3.6037,3.609,3.6114,3.6172,3.6205,3.6249,3.6277,3.6256,3.6363,3.6339,3.6378,3.6378,3.6401,3.6399,3.6499,3.642,3.642,3.642,3.642,0,3.5701,3.5762,3.5809,3.5854,3.5922,3.595,3.6017,3.6048,3.6092,3.6142,3.6155,3.6202,3.6236,3.6287,3.6309,3.6378,3.6392,3.6408,3.6413,3.6407,3.6405,3.6428,3.6423,3.6423,3.6422,3.6422,3.6421,0,3.576,3.5794,3.5874,3.5934,3.595,3.5998,3.6049,3.6092,3.612,3.6184,3.62,3.6243,3.6304,3.6336,3.6412,3.6427,3.6505,3.6507,3.6487,3.649,3.6528,3.6524,3.6646,3.6663,3.6573,3.6573,3.6574,0,3.581,3.5857,3.5922,3.5957,3.5989,3.6045,3.6082,3.6112,3.615,3.6213,3.6248,3.631,3.6361,3.6458,3.6496,3.6554,3.6557,3.6596,3.6566,3.6558,3.6558,3.6555,3.656,3.6601,3.6602,3.6603,3.6603,0,3.5895,3.5909,3.5963,3.6023,3.6067,3.6116,3.6164,3.6191,3.6228,3.6271,3.6333,3.6373,3.6451,3.6512,3.6573,3.6603,3.661,3.6613,3.6625,3.6619,3.6606,3.6614,3.6502,3.661,3.6609,3.6609,3.6608,3.6608,3.5951,3.5993,3.6046,3.6105,3.6144,3.6189,3.6232,3.6266,3.6319,3.6385,3.6399,3.6465,3.6515,3.6598,3.663,3.6682,3.6674,3.6692,3.6696,3.67,3.6702,3.6598,3.6693,3.6693,3.6693,3.6693,3.6693,0,3.6036,3.6071,3.6125,3.6192,3.6238,3.6241,3.6294,3.6332,3.6391,3.6437,3.6487,3.6559,3.6618,3.6661,3.6721,3.6754,3.6758,3.6769,3.6767,3.6774,3.6706,3.6689,3.6764,3.6764,3.6764,3.6764,3.6764,3.6764,3.6086,3.6158,3.6179,3.627,3.6304,3.6369,3.6399,3.644,3.6477,3.6557,3.6607,3.6634,3.6679,3.6743,3.6797,3.6807,3.6829,3.6839,3.685,3.6786,3.6778,3.6771,3.6756,3.6844,3.6844,3.6914,3.6915,3.6915]}]]